HST 1 20580U 90037B 26123.41159367 .00007643 00000+0 24592-3 0 9998 2 20580 28.4763 26.4721 0001951 14.1929 345.8722 15.30259061781707 POLAR 1 23802U 96013A 26122.59367861 .00000051 00000+0 00000+0 0 9996 2 23802 79.8087 227.5815 6424782 210.6433 87.0975 1.29845867144261 SWAS 1 25560U 98071A 26123.88139710 .00003747 00000+0 24077-3 0 9997 2 25560 69.8971 341.7493 0007790 301.7448 58.2957 15.09318568490589 CXO 1 25867U 99040B 26127.06204278 .00000736 00000+0 00000+0 0 9991 2 25867 55.4991 117.8655 7903281 310.4850 359.8743 0.37798040 17169 XMM-NEWTON 1 25989U 99066A 26125.46606464 .00000066 00000+0 00000+0 0 9995 2 25989 64.7084 283.5315 4687262 65.6551 0.1620 0.50129944 22797 TERRA 1 25994U 99068A 26123.93566927 .00000389 00000+0 88158-4 0 9995 2 25994 97.9491 175.2289 0002763 39.7632 133.6896 14.61067497403145 CLUSTER II-FM7 (SAMBA) 1 26410U 00041A 26125.74573274 .00005977 00000+0 00000+0 0 9999 2 26410 149.7335 43.3752 9000062 260.0677 0.6327 0.44858910 20117 CLUSTER II-FM8 (TANGO) 1 26464U 00045B 26125.64298307 .00006195 00000+0 00000+0 0 9995 2 26464 149.9972 44.3576 9005728 260.8928 1.2633 0.44404743 20108 ODIN 1 26702U 01007A 26123.84254494 .00107400 00000+0 11068-2 0 9998 2 26702 97.3943 162.3417 0000439 324.6136 35.5094 15.64480044382442 TIMED 1 26998U 01055B 26123.71541138 .00001208 00000+0 11353-3 0 9995 2 26998 74.0677 324.5575 0001410 200.6381 159.4747 14.95186770324176 CORIOLIS 1 27640U 03001A 26123.94498934 .00000101 00000+0 68023-4 0 9991 2 27640 98.7140 131.5037 0013653 345.2880 14.7897 14.19932438207940 SORCE 1 27651U 03004A 26123.57207481 .00002913 00000+0 22052-3 0 9994 2 27651 39.9891 156.1738 0015949 92.1293 268.1327 15.03468834265180 MOST 1 27843U 03031D 26123.93162031 .00000065 00000+0 49828-4 0 9995 2 27843 98.7058 132.2733 0010328 26.4767 333.6936 14.21313199184426 SCISAT 1 1 27858U 03036A 26123.85794756 .00000753 00000+0 10086-3 0 9999 2 27858 73.9294 259.4131 0007932 325.6505 34.4158 14.81398864224889 SWIFT 1 28485U 04047A 26123.21881887 .00049517 00000+0 48555-3 0 9994 2 28485 20.5512 170.6425 0002644 65.8239 294.2483 15.64258500179801 HINODE (SOLAR-B) 1 29479U 06041A 26123.89869613 .00000759 00000+0 13882-3 0 9991 2 29479 98.0571 140.7020 0018853 70.6034 289.7207 14.68558676 48375 SHIJIAN-6 02A (SJ-6 02A) 1 29505U 06046A 26123.95389227 .00004995 00000+0 26040-3 0 9997 2 29505 97.6395 164.6972 0001511 315.1760 44.9350 15.16437772 65568 SHIJIAN-6 02B (SJ-6 02B) 1 29506U 06046B 26123.95742556 .00001757 00000+0 14132-3 0 9998 2 29506 97.7140 153.2919 0011024 209.3130 150.7477 15.01245606 64100 FGRST (GLAST) 1 33053U 08029A 26123.43770244 .00003427 00000+0 12500-3 0 9994 2 33053 25.5806 155.1379 0008449 156.1464 203.9467 15.23706116989004 SDO 1 36395U 10005A 26123.41278168 -.00000063 00000+0 00000+0 0 9991 2 36395 34.5604 87.0170 0000942 27.6125 153.4950 1.00272977 59614 CRYOSAT 2 1 36508U 10013A 26123.97260438 .00000210 00000+0 51311-4 0 9997 2 36508 92.0302 266.5675 0002652 90.4656 269.6855 14.51908827851664 X-SAT 1 37389U 11015C 26123.92571565 .00000117 00000+0 67219-4 0 9999 2 37389 98.3486 103.0652 0015108 110.5436 249.7367 14.25192796781372 GCOM-W1 (SHIZUKU) 1 38337U 12025A 26123.80194264 .00000526 00000+0 12665-3 0 9997 2 38337 98.2002 65.0370 0001401 94.6066 287.5137 14.57128395742578 NUSTAR 1 38358U 12031A 26124.00002315 .00012613 00000+0 73249-3 0 9990 2 38358 6.0278 5.4653 0008178 178.9533 117.6425 15.08384235 5634 NEOSSAT 1 39089U 13009D 26123.95837666 .00000146 00000+0 65049-4 0 9994 2 39089 98.4169 305.0447 0011448 24.3641 335.8085 14.35810928690399 BRITE-AUSTRIA 1 39091U 13009F 26123.42174325 .00000193 00000+0 80241-4 0 9998 2 39091 98.3985 303.9678 0010538 20.6402 339.5209 14.36524026690620 IRIS 1 39197U 13033A 26123.58369009 .00001195 00000+0 14308-3 0 9997 2 39197 97.9361 322.9967 0025872 104.1843 256.2249 14.85792708693750 HISAKI (SPRINT-A) 1 39253U 13049A 26123.93950948 .00000130 00000+0 91038-4 0 9998 2 39253 29.7193 84.9641 0136588 18.1796 342.3599 13.55539099625412 CASSIOPE 1 39265U 13055A 26123.95785223 .00024976 -48597-6 28858-3 0 9996 2 39265 80.9127 120.2888 0302092 210.7222 147.6026 15.22153923660938 STSAT-3 1 39422U 13066G 26123.89526809 .00003268 00000+0 25042-3 0 9991 2 39422 97.6184 94.5296 0009740 167.2753 192.8720 15.02497104677555 SWARM B 1 39451U 13067A 26123.87412673 .00003288 00000+0 11812-3 0 9997 2 39451 87.7466 355.7753 0002519 98.0634 262.0901 15.28292697676475 SWARM A 1 39452U 13067B 26123.94405174 .00012296 00000+0 21839-3 0 9993 2 39452 87.3327 72.6602 0003597 88.5595 271.6077 15.50047982699399 SWARM C 1 39453U 13067C 26123.94398343 .00012179 00000+0 21629-3 0 9990 2 39453 87.3328 71.2415 0003616 88.5536 271.6139 15.50049543699355 BRITE-CA1 (TORONTO) 1 40020U 14033L 26123.87315029 .00000935 00000+0 14769-3 0 9992 2 40020 97.9672 253.6365 0079821 59.3987 301.5063 14.72614181635698 OCO 2 1 40059U 14035A 26123.93168351 .00000859 00000+0 20073-3 0 9997 2 40059 98.1998 65.9064 0001310 87.7590 272.3759 14.57074010629602 BRITE-PL2 (HEWELIUSZ) 1 40119U 14049B 26123.84939589 .00002520 00000+0 23905-3 0 9992 2 40119 97.9045 235.5256 0012670 254.4921 105.4900 14.94427666634823 MMS 1 1 40482U 15011A 26124.00002315 -.00000564 00000+0 00000+0 0 9996 2 40482 71.5479 349.4039 8359936 166.4281 111.1161 0.28366298 1373 MMS 2 1 40483U 15011B 26124.00002315 -.00000564 00000+0 00000+0 0 9997 2 40483 71.5478 349.4061 8360657 166.4338 111.1037 0.28366259 1372 MMS 3 1 40484U 15011C 26124.00002315 -.00000564 00000+0 00000+0 0 9998 2 40484 71.5506 349.4107 8359883 166.4281 111.1047 0.28366214 1374 MMS 4 1 40485U 15011D 26124.00002315 -.00000564 00000+0 00000+0 0 9999 2 40485 71.5476 349.4062 8359442 166.4357 111.0923 0.28366203 1376 ASTROSAT 1 40930U 15052A 26122.81516272 .00001772 00000+0 13429-3 0 9992 2 40930 5.9962 121.9142 0007472 108.1204 251.9737 14.82428126573080 DAMPE 1 41173U 15078A 26123.97786381 .00001390 00000+0 49451-4 0 9999 2 41173 97.4565 129.2301 0010534 228.3460 131.6880 15.30674787577789 PISAT 1 41784U 16059B 26123.93586960 .00001026 00000+0 18246-3 0 9997 2 41784 97.8184 126.2928 0028752 350.0073 10.0558 14.68904026513249 HXMT (HUIYAN) 1 42758U 17034A 26123.92487219 .00005302 00000+0 26354-3 0 9999 2 42758 43.0148 69.4253 0032632 226.2281 133.5866 15.18073634490931 FLYING LAPTOP 1 42831U 17042G 26123.92030020 .00002938 00000+0 23479-3 0 9991 2 42831 97.4490 281.2188 0017732 275.1242 84.7959 15.00860932479811 ZHANGHENG 1-01 (CSES-1) 1 43194U 18015C 26123.92450183 .00008373 00000+0 38151-3 0 9993 2 43194 97.6838 288.7105 0017620 60.4684 299.8305 15.20790870457910 SALSAT 1 46495U 20068K 26123.91868740 .00008278 00000+0 29493-3 0 9995 2 46495 97.8858 124.3127 0011711 97.6650 262.5919 15.29147420308593 IXPE 1 49954U 21121A 26124.00002315 .00011733 00000+0 64778-3 0 9993 2 49954 0.2317 291.7113 0007147 132.9154 146.7262 15.09846893 5842